Terminal Aerodrome Forecast
Issued by NWS Cleveland, OH

Home | Current Version | Previous Version | Graphics & Text | Print | Product List | Glossary On
Versions: 1 2 3 4 5 6 7 8 9 10 11 12 13 14 15 16 17 18
000
FTUS41 KCLE 180900 AAB
TAFERI
TAF AMD
KERI 180952Z 1810/1906 30014G24KT P6SM -RA OVC015
      TEMPO 1810/1814 5SM -RA BR
     FM181400 30014G22KT P6SM VCSH OVC025
     FM190000 32012G20KT P6SM OVC025
     FM190500 33012KT P6SM OVC030=

USA.gov is the U.S. government's official web portal to all federal, state and local government web resources and services.